Weather History for Wrangell, AK

Change the Weather History Date:

Sunday, January 22, 2012

  Actual Average Record
Temperature  
Mean Temperature 32 °F -  
Max Temperature 37 °F 36 °F 51 °F (1981)
Min Temperature 26 °F 26 °F 2 °F (1950)
Degree Days  
Heating Degree Days 34    
Moisture  
Dew Point 27 °F    
Average Humidity 78    
Maximum Humidity 87    
Minimum Humidity 65    
Precipitation  
Precipitation 0.00 in - - ()
Sea Level Pressure  
Sea Level Pressure 29.21 in    
Wind  
Wind Speed 8 mph (SE)    
Max Wind Speed 15 mph    
Max Gust Speed 22 mph    
Visibility 9 miles    
Events      
Averages and records for this station are not official NWS values.
T = Trace of Precipitation, MM = Missing Value Source: NWS Daily Summary

Daily Weather History Graph

Daily Weather History Graph

Search for Another Location

Airport:

Trip Planner

Search our weather history database for the weather conditions in past years. The results will help you decide how hot, cold, wet, or windy it might be!

Date:

Astronomy

Jan. 22, 2012 Rise Set
Actual Time 8:04 AM AKST 3:58 PM AKST
Civil Twilight 7:20 AM AKST 4:42 PM AKST
Nautical Twilight 6:33 AM AKST 5:29 PM AKST
Astronomical Twilight 5:48 AM AKST 6:14 PM AKST
Moon 7:23 AM AKST (1/22) 3:53 PM AKST (1/22)
Length of Visible Light 9h 21m
Length of Day
7h 54m
Waning Crescent, 0% of the Moon is Illuminated
Jan 22
Waning Crescent
Jan 22
New
Jan 30
First Quarter
Feb 7
Full
Feb 14
Last Quarter

Hourly Weather History & Observations

Time (AKST) Temp. Windchill Dew Point Humidity Pressure Visibility Wind Dir Wind Speed Gust Speed Precip Events Conditions
12:16 AM 33.8 °F 27.0 °F 30.2 °F 87% 29.21 in 5.0 mi SE 8.1 mph - N/A   Mostly Cloudy
12:36 AM 35.6 °F 31.7 °F 28.4 °F 75% 29.22 in 10.0 mi South 4.6 mph - N/A   Mostly Cloudy
12:56 AM 35.6 °F 29.9 °F 26.6 °F 70% 29.23 in 10.0 mi South 6.9 mph - N/A   Overcast
1:16 AM 32.0 °F 23.6 °F 28.4 °F 87% 29.24 in 10.0 mi WNW 10.4 mph - N/A   Overcast
1:36 AM 30.2 °F 21.3 °F 26.6 °F 86% 29.25 in 7.0 mi NW 10.4 mph - N/A   Overcast
1:56 AM 30.2 °F 24.3 °F 26.6 °F 86% 29.26 in 2.0 mi North 5.8 mph - N/A   Overcast
2:16 AM 33.8 °F 30.8 °F 30.2 °F 87% 29.26 in 5.0 mi NE 3.5 mph - N/A   Mostly Cloudy
2:36 AM 33.8 °F 27.0 °F 28.4 °F 81% 29.27 in 10.0 mi South 8.1 mph - N/A   Overcast
2:56 AM 33.8 °F 27.7 °F 30.2 °F 87% 29.27 in 10.0 mi SSE 6.9 mph - N/A   Mostly Cloudy
3:16 AM 33.8 °F 27.0 °F 28.4 °F 81% 29.27 in 10.0 mi SSE 8.1 mph - N/A   Overcast
3:36 AM 33.8 °F 26.4 °F 28.4 °F 81% 29.28 in 10.0 mi South 9.2 mph - N/A   Overcast
3:56 AM 33.8 °F 26.4 °F 28.4 °F 81% 29.28 in 10.0 mi SSE 9.2 mph - N/A   Overcast
4:16 AM 33.8 °F 27.0 °F 28.4 °F 81% 29.29 in 10.0 mi SSE 8.1 mph - N/A   Overcast
4:36 AM 35.6 °F 28.6 °F 28.4 °F 75% 29.29 in 10.0 mi SSE 9.2 mph - N/A   Overcast
4:56 AM 33.8 °F 25.3 °F 28.4 °F 81% 29.29 in 10.0 mi SE 11.5 mph - N/A   Overcast
5:16 AM 33.8 °F 26.4 °F 28.4 °F 81% 29.28 in 10.0 mi SE 9.2 mph - N/A   Mostly Cloudy
5:36 AM 33.8 °F 28.6 °F 28.4 °F 81% 29.29 in 10.0 mi South 5.8 mph - N/A   Overcast
5:56 AM 33.8 °F 26.4 °F 28.4 °F 81% 29.29 in 10.0 mi South 9.2 mph - N/A   Mostly Cloudy
6:16 AM 33.8 °F 28.6 °F 28.4 °F 81% 29.29 in 10.0 mi South 5.8 mph - N/A   Mostly Cloudy
6:36 AM 35.6 °F 27.5 °F 30.2 °F 81% 29.28 in 10.0 mi SSE 11.5 mph - N/A   Mostly Cloudy
6:56 AM 35.6 °F 28.0 °F 30.2 °F 81% 29.28 in 3.0 mi SE 10.4 mph - N/A   Overcast
7:16 AM 35.6 °F 26.6 °F 28.4 °F 75% 29.27 in 3.0 mi SE 13.8 mph - N/A   Overcast
7:36 AM 35.6 °F 26.2 °F 30.2 °F 81% 29.27 in 3.0 mi ESE 15.0 mph - N/A   Overcast
7:56 AM 35.6 °F 27.5 °F 28.4 °F 75% 29.27 in 7.0 mi SE 11.5 mph 21.9 mph N/A   Overcast
8:16 AM 35.6 °F 28.0 °F 28.4 °F 75% 29.27 in 7.0 mi SE 10.4 mph - N/A   Overcast
8:36 AM 35.6 °F 28.0 °F 28.4 °F 75% 29.27 in 7.0 mi SE 10.4 mph - N/A   Overcast
8:56 AM 35.6 °F 26.6 °F 28.4 °F 75% 29.26 in 10.0 mi SE 13.8 mph - N/A   Mostly Cloudy
9:16 AM 35.6 °F 28.6 °F 28.4 °F 75% 29.25 in 10.0 mi SE 9.2 mph - N/A   Mostly Cloudy
9:36 AM 37.4 °F 32.1 °F 26.6 °F 65% 29.25 in 10.0 mi ESE 6.9 mph - N/A   Mostly Cloudy
9:56 AM 37.4 °F 32.1 °F 26.6 °F 65% 29.24 in 10.0 mi ESE 6.9 mph - N/A   Mostly Cloudy
10:16 AM 35.6 °F 29.9 °F 30.2 °F 81% 29.24 in 10.0 mi East 6.9 mph - N/A   Mostly Cloudy
10:36 AM 37.4 °F 32.8 °F 28.4 °F 70% 29.23 in 10.0 mi ESE 5.8 mph - N/A   Mostly Cloudy
10:56 AM 37.4 °F 30.3 °F 30.2 °F 75% 29.21 in 10.0 mi East 10.4 mph - N/A   Overcast
11:16 AM 37.4 °F 30.3 °F 28.4 °F 70% 29.20 in 10.0 mi East 10.4 mph - N/A   Overcast
11:36 AM 37.4 °F 30.3 °F 30.2 °F 75% 29.19 in 10.0 mi East 10.4 mph - N/A   Overcast
11:56 AM 37.4 °F 30.8 °F 28.4 °F 70% 29.18 in 10.0 mi East 9.2 mph - N/A   Overcast
12:16 PM 35.6 °F 29.9 °F 28.4 °F 75% 29.17 in 10.0 mi NW 6.9 mph - N/A   Overcast
12:36 PM 33.8 °F 28.6 °F 26.6 °F 75% 29.16 in 10.0 mi NW 5.8 mph - N/A   Overcast
12:56 PM 32.0 °F 24.8 °F 24.8 °F 75% 29.15 in 10.0 mi NNW 8.1 mph - N/A   Overcast
1:16 PM 32.0 °F 23.6 °F 26.6 °F 80% 29.14 in 10.0 mi NNW 10.4 mph - N/A   Overcast
1:36 PM 32.0 °F 25.6 °F 24.8 °F 75% 29.13 in 10.0 mi NNW 6.9 mph - N/A   Overcast
1:56 PM 32.0 °F 24.8 °F 24.8 °F 75% 29.12 in 10.0 mi NNW 8.1 mph - N/A   Mostly Cloudy
2:16 PM 32.0 °F 24.8 °F 24.8 °F 75% 29.12 in 10.0 mi NW 8.1 mph - N/A   Mostly Cloudy
2:36 PM 32.0 °F 28.7 °F 26.6 °F 80% 29.11 in 10.0 mi NW 3.5 mph - N/A   Mostly Cloudy
2:56 PM 32.0 °F 28.7 °F 24.8 °F 75% 29.11 in 10.0 mi WNW 3.5 mph - N/A   Overcast
3:16 PM 32.0 °F 27.5 °F 24.8 °F 75% 29.11 in 10.0 mi West 4.6 mph - N/A   Overcast
3:36 PM 30.2 °F 24.3 °F 24.8 °F 80% 29.10 in 10.0 mi West 5.8 mph - N/A   Overcast
3:56 PM 30.2 °F 25.4 °F 24.8 °F 80% 29.10 in 10.0 mi NNW 4.6 mph - N/A   Overcast
4:16 PM 30.2 °F 23.4 °F 24.8 °F 80% 29.10 in 10.0 mi NNW 6.9 mph - N/A   Overcast
4:36 PM 30.2 °F 23.4 °F 23.0 °F 75% 29.09 in 10.0 mi NNW 6.9 mph - N/A   Overcast
4:56 PM 30.2 °F 21.3 °F 23.0 °F 75% 29.08 in 10.0 mi NW 10.4 mph - N/A   Overcast
5:16 PM 28.4 °F 19.1 °F 23.0 °F 80% 29.07 in 10.0 mi NW 10.4 mph - N/A   Overcast
5:36 PM 28.4 °F 19.1 °F 21.2 °F 74% 29.06 in 10.0 mi NW 10.4 mph - N/A   Overcast
5:56 PM 26.6 °F 17.5 °F 21.2 °F 80% 29.07 in 10.0 mi WNW 9.2 mph - N/A   Overcast
6:16 PM 26.6 °F 19.1 °F 21.2 °F 80% 29.07 in 10.0 mi West 6.9 mph - N/A   Overcast
6:36 PM 28.4 °F 22.2 °F 23.0 °F 80% 29.07 in 10.0 mi WNW 5.8 mph - N/A   Overcast
6:56 PM 30.2 °F 23.4 °F 23.0 °F 75% 29.07 in 10.0 mi NW 6.9 mph - N/A   Overcast
7:16 PM 28.4 °F 20.4 °F 21.2 °F 74% 29.07 in 10.0 mi NW 8.1 mph - N/A   Overcast
7:36 PM 28.4 °F 21.2 °F 21.2 °F 74% 29.08 in 10.0 mi NNW 6.9 mph - N/A   Overcast
7:56 PM 28.4 °F 19.7 °F 21.2 °F 74% 29.08 in 10.0 mi NW 9.2 mph - N/A   Overcast
8:16 PM 28.4 °F 22.2 °F 23.0 °F 80% 29.09 in 10.0 mi WNW 5.8 mph - N/A   Overcast
8:36 PM 28.4 °F 23.3 °F 23.0 °F 80% 29.10 in 10.0 mi WNW 4.6 mph - N/A   Overcast
8:56 PM 28.4 °F 23.3 °F 24.8 °F 86% 29.10 in 10.0 mi NW 4.6 mph - N/A   Overcast
9:16 PM 28.4 °F 22.2 °F 24.8 °F 86% 29.11 in 8.0 mi NW 5.8 mph - N/A   Overcast
9:36 PM 28.4 °F 24.6 °F 24.8 °F 86% 29.11 in 8.0 mi NW 3.5 mph - N/A   Overcast
9:56 PM 28.4 °F 22.2 °F 24.8 °F 86% 29.12 in 7.0 mi NW 5.8 mph - N/A   Overcast
10:16 PM 28.4 °F 23.3 °F 24.8 °F 86% 29.12 in 7.0 mi NW 4.6 mph - N/A   Overcast
10:36 PM 28.4 °F 23.3 °F 24.8 °F 86% 29.13 in 7.0 mi NW 4.6 mph - N/A   Overcast
10:56 PM 28.4 °F 23.3 °F 26.6 °F 93% 29.13 in 7.0 mi NW 4.6 mph - N/A   Overcast
11:16 PM 28.4 °F - 26.6 °F 93% 29.14 in 6.0 mi Calm Calm - N/A   Overcast
11:36 PM 28.4 °F 24.6 °F 26.6 °F 93% 29.15 in 7.0 mi WNW 3.5 mph - N/A   Overcast
11:56 PM 28.4 °F 24.6 °F 26.6 °F 93% 29.16 in 9.0 mi WSW 3.5 mph - N/A   Overcast